Temp
-8 -8 -8 -8 -8 -8 -8 -8 -8 -8 -8 -8 -8 -8 -8 -8 -8 -8 -8 -8 -8 -8 -8 -8 -8 -8 -9 -9 -9 -9 -9 -9 -9 -9 -9 -9 -9 -9 -9 -9 -9 -9 -10 -10 -10
-8 -8 -8 -8 -8 -8 -8 -8 -8 -8 -8 -8 -8 -8 -8 -8 -8 -8 -8 -8 -8 -8 -8 -8 -8 -9 -9 -9 -9 -9 -9 -9 -9 -9 -9 -10 -10 -10 -10 -10 -10 -10 -9 -9 -9
-9 -9 -8 -8 -8 -8 -8 -8 -8 -8 -8 -8 -9 -9 -9 -9 -8 -8 -8 -8 -8 -8 -8 -8 -8 -8 -9 -9 -9 -9 -9 -9 -9 -9 -9 -10 -10 -10 -10 -10 -10 -10 -10 -10 -10
-9 -9 -9 -9 -8 -8 -8 -8 -8 -8 -8 -8 -9 -9 -9 -9 -9 -9 -9 -9 -9 -9 -9 -8 -8 -8 -9 -9 -9 -9 -9 -9 -9 -9 -9 -9 -9 -10 -10 -10 -10 -10 -10 -10 -10
-9 -9 -9 -9 -9 -9 -8 -9 -9 -9 -9 -9 -9 -9 -9 -9 -9 -9 -9 -9 -9 -9 -9 -9 -9 -9 -9 -9 -9 -9 -9 -9 -9 -9 -9 -9 -9 -10 -10 -10 -10 -10 -10 -10 -11
-9 -9 -9 -9 -9 -9 -9 -9 -9 -9 -9 -9 -9 -9 -9 -9 -9 -9 -9 -9 -9 -9 -9 -9 -9 -9 -9 -9 -9 -9 -9 -9 -10 -10 -10 -9 -9 -10 -10 -10 -10 -10 -10 -10 -10
-10 -10 -10 -10 -9 -9 -9 -9 -9 -9 -9 -9 -9 -9 -9 -10 -10 -10 -10 -10 -10 -10 -10 -10 -10 -10 -10 -10 -10 -10 -9 -10 -10 -10 -10 -9 -9 -10 -10 -10 -10 -10 -10 -10 -10
-10 -10 -10 -10 -10 -10 -10 -9 -9 -9 -9 -9 -9 -9 -9 -10 -10 -10 -10 -10 -10 -10 -10 -10 -10 -10 -10 -10 -10 -9 -9 -9 -10 -10 -10 -10 -9 -10 -10 -10 -10 -10 -10 -10 -10
-10 -10 -10 -10 -10 -10 -10 -10 -10 -10 -10 -10 -10 -10 -10 -10 -10 -10 -10 -10 -10 -10 -10 -10 -10 -10 -10 -10 -10 -10 -10 -9 -10 -10 -10 -10 -10 -10 -10 -10 -10 -10 -10 -10 -10
-10 -10 -11 -11 -10 -10 -10 -10 -10 -10 -10 -10 -10 -10 -10 -10 -10 -11 -10 -10 -10 -11 -11 -11 -11 -10 -10 -11 -10 -10 -10 -10 -10 -10 -10 -10 -10 -10 -10 -10 -10 -10 -10 -10 -10
-11 -11 -11 -11 -11 -11 -11 -10 -10 -10 -10 -10 -10 -10 -10 -10 -10 -10 -11 -11 -11 -11 -11 -11 -11 -11 -11 -11 -11 -11 -10 -10 -10 -10 -10 -10 -9 -10 -10 -10 -10 -10 -10 -10 -10
-11 -11 -11 -11 -11 -11 -11 -11 -11 -10 -10 -10 -10 -11 -10 -11 -10 -10 -11 -10 -11 -11 -11 -11 -11 -12 -11 -11 -11 -11 -11 -11 -11 -11 -10 -10 -10 -10 -10 -10 -10 -10 -11 -11 -11
-11 -12 -12 -11 -11 -11 -11 -11 -11 -11 -10 -10 -11 -11 -11 -11 -10 -11 -11 -11 -11 -11 -11 -12 -12 -12 -12 -12 -12 -11 -11 -11 -11 -11 -11 -10 -9 -9 -9 -10 -10 -11 -11 -11 -11
-12 -12 -12 -12 -12 -12 -12 -12 -12 -11 -11 -10 -11 -11 -11 -11 -11 -11 -11 -11 -11 -11 -11 -11 -12 -12 -12 -12 -12 -12 -12 -12 -12 -12 -11 -10 -8 -9 -9 -9 -10 -11 -11 -12 -11
-12 -12 -12 -13 -12 -12 -12 -12 -12 -12 -11 -11 -11 -11 -11 -11 -11 -11 -11 -11 -11 -11 -12 -11 -12 -12 -12 -12 -13 -12 -12 -12 -12 -12 -11 -10 -10 -9 -9 -9 -9 -10 -12 -12 -12
-12 -12 -13 -13 -13 -13 -13 -13 -12 -12 -10 -11 -11 -12 -12 -12 -12 -11 -12 -12 -12 -12 -12 -12 -12 -12 -13 -13 -13 -12 -13 -12 -12 -12 -10 -10 -10 -9 -9 -9 -10 -10 -12 -11 -12
-13 -12 -13 -13 -13 -13 -14 -13 -13 -12 -11 -11 -11 -12 -12 -12 -12 -12 -12 -12 -12 -13 -12 -13 -13 -13 -13 -13 -13 -13 -13 -13 -12 -11 -10 -10 -10 -8 -9 -10 -10 -11 -11 -11 -12
-15 -13 -13 -13 -14 -14 -14 -14 -13 -11 -12 -12 -12 -13 -12 -13 -13 -13 -13 -13 -13 -13 -13 -13 -13 -13 -13 -13 -13 -13 -13 -14 -12 -12 -10 -10 -8 -8 -9 -10 -11 -11 -11 -12 -13
-14 -14 -14 -14 -14 -15 -15 -15 -11 -12 -12 -13 -13 -13 -12 -13 -14 -14 -13 -13 -13 -14 -14 -14 -13 -14 -14 -13 -13 -12 -13 -14 -14 -13 -11 -9 -8 -8 -10 -10 -11 -12 -12 -13 -13
-14 -14 -13 -16 -16 -15 -15 -12 -12 -12 -13 -13 -13 -13 -13 -13 -14 -14 -13 -13 -13 -14 -15 -15 -14 -13 -13 -13 -13 -14 -14 -14 -15 -14 -13 -8 -9 -10 -11 -11 -11 -13 -12 -13 -14
-14 -14 -13 -14 -16 -16 -15 -12 -13 -13 -14 -15 -14 -14 -14 -14 -14 -14 -13 -14 -14 -14 -15 -15 -15 -14 -14 -13 -14 -15 -14 -15 -15 -14 -14 -12 -7 -9 -11 -11 -12 -13 -13 -13 -14
-14 -15 -14 -14 -15 -15 -14 -13 -13 -13 -14 -15 -15 -15 -15 -15 -15 -14 -14 -14 -15 -15 -15 -16 -16 -16 -14 -13 -13 -13 -14 -14 -14 -14 -14 -15 -8 -9 -11 -12 -12 -13 -13 -13 -13
-14 -15 -15 -15 -15 -16 -15 -15 -15 -14 -14 -15 -15 -15 -16 -15 -15 -15 -14 -14 -15 -15 -15 -15 -16 -15 -13 -13 -12 -13 -13 -15 -15 -15 -12 -16 -9 -12 -12 -12 -13 -13 -14 -13 -13
-17 -17 -16 -16 -16 -16 -16 -16 -15 -16 -16 -15 -15 -16 -16 -15 -16 -15 -14 -15 -15 -15 -15 -15 -15 -15 -14 -14 -14 -14 -14 -14 -15 -14 -13 -14 -13 -11 -12 -13 -13 -13 -13 -13 -13
-17 -17 -18 -19 -17 -17 -17 -16 -16 -16 -16 -16 -15 -16 -16 -16 -16 -16 -15 -16 -16 -16 -16 -15 -15 -15 -15 -14 -15 -16 -15 -14 -13 -13 -14 -13 -14 -13 -12 -13 -13 -13 -13 -14 -14
-18 -18 -18 -19 -19 -19 -18 -18 -16 -17 -17 -17 -17 -16 -16 -16 -16 -15 -16 -16 -16 -16 -16 -16 -15 -16 -15 -15 -15 -16 -15 -14 -14 -14 -15 -15 -15 -13 -14 -13 -13 -13 -15 -14 -14
-19 -20 -21 -20 -20 -20 -19 -19 -18 -17 -17 -17 -17 -18 -17 -16 -17 -17 -17 -16 -17 -17 -16 -17 -17 -17 -16 -16 -17 -17 -14 -16 -15 -15 -15 -15 -15 -14 -14 -15 -16 -14 -14 -14 -14
Height
5906 5906 5906 5906 5906 5907 5907 5907 5908 5908 5907 5907 5906 5906 5904 5903 5902 5900 5898 5897 5895 5894 5893 5891 5889 5887 5885 5882 5881 5879 5878 5875 5873 5871 5870 5868 5865 5863 5861 5858 5856 5854 5853 5852 5851
5903 5903 5903 5903 5903 5903 5904 5904 5904 5904 5904 5904 5904 5903 5903 5902 5901 5899 5898 5895 5893 5892 5892 5890 5888 5886 5884 5881 5879 5878 5876 5874 5872 5870 5868 5865 5863 5860 5858 5855 5853 5851 5849 5848 5847
5898 5899 5899 5899 5900 5899 5899 5899 5900 5900 5900 5900 5900 5900 5899 5898 5898 5897 5896 5895 5893 5892 5890 5888 5887 5885 5883 5880 5878 5876 5874 5871 5870 5868 5866 5863 5860 5858 5855 5853 5850 5848 5846 5844 5842
5892 5893 5894 5894 5894 5895 5895 5894 5894 5894 5895 5895 5895 5896 5896 5895 5895 5892 5892 5891 5889 5888 5887 5885 5884 5882 5880 5878 5876 5873 5871 5869 5867 5865 5863 5860 5858 5855 5852 5850 5846 5844 5842 5840 5838
5886 5887 5888 5888 5888 5888 5888 5889 5889 5889 5889 5889 5889 5889 5890 5891 5890 5888 5887 5886 5885 5884 5883 5881 5880 5878 5876 5874 5872 5870 5868 5866 5864 5862 5859 5856 5855 5852 5847 5846 5843 5840 5837 5834 5832
5879 5880 5881 5881 5882 5882 5882 5882 5883 5882 5882 5882 5882 5883 5883 5884 5884 5883 5882 5882 5881 5879 5878 5876 5874 5873 5872 5870 5868 5866 5864 5861 5859 5857 5856 5853 5851 5847 5845 5843 5839 5836 5833 5829 5827
5872 5873 5873 5874 5874 5875 5875 5875 5876 5875 5875 5875 5875 5875 5876 5878 5876 5876 5876 5876 5875 5874 5873 5872 5870 5868 5866 5865 5863 5862 5859 5856 5854 5851 5850 5848 5848 5843 5840 5838 5835 5833 5829 5826 5822
5864 5864 5865 5866 5866 5866 5867 5867 5868 5868 5868 5868 5867 5867 5868 5870 5869 5868 5869 5869 5868 5867 5866 5865 5864 5863 5861 5859 5857 5856 5853 5851 5848 5845 5843 5841 5846 5839 5834 5833 5830 5827 5823 5819 5816
5856 5856 5856 5857 5857 5858 5858 5858 5858 5859 5859 5859 5859 5858 5860 5862 5861 5861 5861 5861 5860 5858 5857 5856 5855 5855 5854 5852 5849 5849 5846 5844 5841 5837 5833 5832 5837 5835 5829 5826 5825 5820 5815 5811 5808
5847 5847 5848 5847 5848 5849 5849 5848 5848 5849 5849 5849 5848 5850 5851 5853 5852 5853 5852 5851 5850 5849 5849 5848 5846 5846 5847 5843 5840 5839 5837 5837 5834 5828 5822 5822 5824 5829 5823 5820 5818 5814 5808 5803 5800
5836 5838 5838 5837 5838 5839 5840 5839 5840 5839 5840 5840 5838 5839 5840 5842 5844 5844 5843 5842 5841 5840 5839 5837 5836 5841 5836 5833 5831 5830 5828 5826 5827 5818 5810 5812 5809 5816 5816 5812 5811 5807 5801 5796 5792
5826 5827 5827 5826 5827 5828 5830 5829 5828 5828 5826 5828 5828 5828 5830 5831 5834 5834 5834 5833 5833 5831 5829 5825 5826 5831 5827 5824 5822 5820 5817 5818 5814 5808 5800 5800 5797 5802 5802 5804 5802 5798 5793 5787 5783
5814 5815 5817 5815 5816 5817 5817 5818 5817 5816 5811 5817 5816 5816 5819 5823 5823 5825 5825 5823 5822 5820 5820 5814 5818 5817 5815 5814 5811 5809 5806 5805 5799 5797 5791 5784 5780 5787 5792 5789 5793 5789 5784 5779 5773
5803 5804 5805 5804 5806 5806 5806 5806 5806 5806 5798 5793 5804 5803 5808 5810 5809 5815 5814 5813 5810 5810 5809 5803 5809 5806 5803 5803 5801 5796 5798 5792 5788 5782 5776 5775 5754 5771 5778 5779 5777 5774 5771 5768 5763
5791 5792 5793 5791 5792 5793 5795 5794 5794 5795 5782 5780 5777 5790 5798 5801 5802 5802 5802 5800 5799 5799 5798 5797 5795 5795 5793 5793 5791 5785 5785 5782 5776 5770 5761 5763 5753 5753 5759 5761 5763 5767 5752 5753 5751
5775 5779 5780 5781 5779 5779 5781 5781 5782 5781 5760 5765 5768 5774 5782 5788 5790 5790 5791 5789 5788 5785 5784 5785 5783 5783 5783 5782 5779 5775 5772 5769 5763 5760 5744 5754 5745 5735 5746 5746 5746 5749 5745 5739 5738
5758 5762 5765 5765 5767 5766 5766 5767 5767 5755 5754 5760 5762 5762 5766 5770 5774 5777 5777 5776 5775 5773 5772 5773 5771 5771 5770 5769 5766 5765 5761 5754 5748 5747 5736 5738 5730 5728 5732 5731 5734 5734 5733 5728 5724
5741 5743 5747 5750 5749 5749 5749 5751 5744 5742 5749 5751 5751 5752 5753 5756 5757 5758 5759 5760 5763 5762 5759 5756 5757 5760 5758 5757 5753 5749 5749 5745 5738 5735 5722 5725 5711 5717 5715 5717 5725 5725 5720 5713 5712
5724 5724 5729 5731 5728 5728 5728 5728 5728 5734 5735 5735 5737 5737 5740 5744 5742 5741 5741 5743 5747 5749 5747 5743 5741 5743 5742 5741 5739 5735 5731 5733 5727 5724 5712 5707 5705 5703 5701 5704 5714 5712 5706 5700 5698
5703 5704 5712 5711 5704 5704 5700 5710 5712 5717 5719 5719 5720 5722 5724 5726 5726 5725 5727 5729 5730 5732 5732 5724 5723 5724 5724 5725 5721 5723 5722 5715 5714 5709 5702 5692 5693 5685 5686 5693 5702 5698 5692 5685 5683
5683 5680 5689 5692 5683 5676 5676 5694 5697 5701 5703 5702 5700 5701 5704 5708 5708 5708 5711 5713 5714 5716 5712 5706 5704 5710 5709 5708 5711 5707 5702 5701 5701 5697 5691 5688 5674 5673 5683 5687 5687 5685 5680 5675 5668
5666 5657 5665 5669 5662 5657 5667 5678 5679 5683 5683 5681 5681 5683 5684 5688 5688 5687 5689 5693 5697 5698 5689 5690 5683 5684 5689 5691 5691 5687 5686 5687 5681 5681 5678 5669 5657 5674 5680 5678 5677 5674 5666 5659 5652
5649 5644 5644 5643 5637 5642 5652 5655 5654 5662 5661 5663 5661 5665 5668 5667 5663 5666 5673 5682 5681 5675 5671 5670 5658 5661 5673 5674 5670 5670 5672 5670 5666 5663 5655 5647 5649 5670 5669 5666 5663 5656 5650 5646 5640
5628 5618 5618 5615 5625 5625 5630 5635 5635 5644 5642 5640 5643 5645 5649 5648 5648 5646 5653 5658 5659 5655 5655 5648 5638 5642 5648 5661 5653 5648 5649 5651 5649 5640 5640 5630 5634 5650 5657 5655 5649 5642 5637 5633 5626
5601 5596 5599 5595 5601 5607 5609 5614 5617 5623 5624 5625 5621 5628 5632 5629 5631 5632 5642 5636 5634 5633 5633 5627 5620 5624 5626 5635 5633 5630 5629 5639 5632 5625 5612 5623 5615 5626 5635 5634 5629 5623 5615 5609 5606
5578 5579 5574 5575 5583 5582 5585 5591 5598 5608 5607 5609 5603 5614 5611 5609 5614 5621 5618 5616 5610 5612 5607 5606 5605 5605 5601 5613 5614 5606 5611 5622 5616 5616 5603 5596 5594 5617 5610 5611 5605 5606 5597 5592 5591
5555 5556 5553 5551 5557 5558 5564 5570 5575 5587 5583 5590 5593 5592 5587 5599 5602 5594 5594 5592 5588 5591 5591 5589 5587 5584 5578 5594 5585 5574 5603 5606 5600 5600 5596 5586 5588 5592 5594 5586 5580 5583 5574 5574 5571
Wind_Speed
20 18 18 18 20 18 16 15 15 14 13 12 10 9 7 7 6 6 4 5 5 7 7 7 7 9 11 10 10 10 9 9 10 12 12 13 13 13 14 15 17 18 18 19 20
26 24 23 23 21 22 21 19 19 18 17 16 16 14 12 10 10 10 9 8 8 8 8 9 9 10 11 11 10 10 9 10 11 11 10 11 12 13 14 15 18 17 18 19 20
30 29 28 28 27 25 25 25 24 23 22 21 21 19 19 16 15 14 13 13 14 14 13 12 12 11 13 13 12 12 12 11 11 13 15 15 16 16 16 17 17 17 17 18 19
33 33 33 32 32 31 30 30 29 28 27 26 26 25 23 23 22 20 18 18 17 17 17 17 17 16 15 16 16 16 16 15 15 14 16 19 18 19 19 16 17 17 19 20 21
35 35 35 36 36 36 36 34 34 33 33 31 30 29 29 28 28 27 25 24 23 22 21 22 21 21 20 20 20 20 20 21 20 18 18 19 19 21 25 20 21 21 22 22 23
35 36 38 38 39 39 39 40 38 38 37 36 35 34 33 32 32 32 31 30 29 28 27 27 26 26 25 25 25 24 24 25 25 25 23 21 21 23 25 25 25 25 26 26 28
37 39 39 40 41 42 42 42 41 42 41 40 39 38 37 35 36 35 35 34 35 34 34 33 32 31 31 32 30 28 28 29 29 29 29 27 20 25 28 28 28 27 29 30 31
38 39 41 43 43 42 43 44 44 45 46 45 44 44 43 38 38 39 38 37 37 37 37 38 38 38 37 37 36 35 34 32 33 35 33 34 20 28 31 29 31 30 32 33 32
42 41 42 43 43 44 44 45 45 45 46 47 48 48 46 43 41 42 41 40 41 41 41 40 39 39 39 40 40 39 39 37 38 39 41 40 29 28 33 31 29 32 34 36 35
44 44 44 46 45 45 45 46 45 45 45 45 48 48 46 44 44 44 44 44 43 42 42 41 41 40 37 37 42 42 40 40 41 44 46 44 40 29 34 33 31 32 34 38 41
45 45 45 47 49 48 46 48 48 48 47 47 48 47 46 44 44 44 44 46 47 46 45 46 47 42 39 41 42 41 42 43 41 46 52 49 49 39 35 36 32 34 38 38 39
48 47 46 49 49 50 50 50 51 52 53 50 50 50 48 46 45 42 42 44 44 45 45 48 45 39 43 44 44 45 45 44 45 49 55 53 52 46 42 36 35 35 37 39 40
52 51 51 50 50 51 53 53 54 56 59 55 55 55 52 49 47 45 43 45 44 44 43 48 43 41 43 44 46 47 47 46 52 52 56 60 57 49 42 42 37 35 37 38 39
55 54 53 55 53 51 52 55 56 56 66 69 59 58 53 49 52 45 46 46 47 45 44 49 40 41 43 43 45 48 46 51 54 57 60 58 62 51 48 44 40 42 40 36 35
56 57 56 57 57 55 54 54 55 57 67 68 69 59 52 49 47 44 43 45 46 44 44 43 41 39 40 39 43 50 51 53 57 59 63 59 64 59 55 51 49 44 49 36 29
58 59 57 59 59 58 58 57 56 58 72 69 66 63 56 49 47 47 43 44 44 45 47 45 46 45 44 43 47 51 53 54 58 60 67 59 64 68 59 59 58 50 39 39 37
58 63 59 59 61 61 60 60 60 69 70 67 64 64 61 57 53 47 47 49 48 47 47 45 46 46 45 47 49 51 54 57 61 61 66 65 69 66 64 65 55 47 42 40 46
63 62 63 63 64 65 65 65 71 72 67 65 63 62 63 61 59 56 55 53 51 50 51 52 50 46 48 48 52 55 55 56 62 64 70 68 69 68 66 59 51 47 43 41 35
67 66 66 66 72 73 71 74 75 72 69 67 64 64 60 58 59 58 57 56 53 49 51 51 55 52 52 54 55 59 60 57 60 64 74 71 65 62 65 60 52 39 39 44 43
60 67 66 73 77 80 81 79 75 73 72 70 69 68 66 64 62 62 59 58 55 53 48 56 59 61 62 61 63 60 60 63 61 62 66 65 66 73 74 65 40 42 41 48 49
59 59 50 54 77 84 85 75 76 72 72 70 71 72 71 68 66 66 64 62 58 56 57 60 61 59 59 60 57 60 63 63 62 65 68 67 69 72 66 53 45 45 42 45 52
63 57 49 53 64 66 70 69 71 72 73 74 78 76 73 73 71 69 67 63 60 59 62 60 64 66 68 66 65 70 68 66 66 65 65 72 68 59 51 56 47 46 47 50 55
76 62 64 54 70 70 68 66 64 63 64 65 66 68 68 68 75 74 68 63 64 67 68 66 69 70 65 65 66 63 58 59 64 65 68 71 70 57 56 51 47 50 51 53 56
90 96 95 93 77 67 62 64 65 66 64 65 63 60 58 67 69 73 73 69 66 69 67 70 74 75 73 65 68 66 65 64 63 69 73 78 74 65 58 52 49 52 57 62 60
96 99 95 81 77 80 75 68 67 61 64 64 68 64 62 63 60 63 60 62 64 65 68 69 70 64 65 62 63 66 66 64 73 78 81 75 77 73 64 60 59 62 65 63 62
94 96 98 92 86 78 78 81 89 80 71 73 74 63 63 64 62 63 62 62 66 63 62 67 74 76 78 71 71 75 73 71 74 73 77 78 77 66 61 61 62 57 63 62 58
90 86 86 92 90 85 83 85 80 83 85 73 77 77 80 63 63 67 64 68 68 68 68 68 69 71 74 68 70 74 68 61 69 68 67 71 70 65 59 63 63 64 67 64 64
Wind_Direction
244 247 250 250 250 251 250 258 259 262 269 272 274 281 287 300 315 315 315 316 315 312 319 331 334 335 334 333 337 340 337 320 304 296 296 295 299 302 300 301 303 309 305 295 286
249 250 250 252 250 249 251 254 258 263 262 264 266 269 270 270 279 293 295 298 299 294 295 306 311 317 325 329 322 324 330 330 325 321 316 313 313 313 311 308 307 305 302 297 294
254 254 252 252 255 249 246 251 254 256 260 262 261 259 261 262 263 269 279 289 295 298 298 293 297 301 308 314 317 315 312 313 316 316 312 309 311 313 313 323 317 312 307 302 300
260 257 257 256 255 254 252 249 250 254 255 258 261 263 260 260 257 258 261 268 270 276 284 289 292 292 292 294 299 302 304 306 305 309 313 312 306 306 304 315 312 311 311 310 308
261 261 261 259 259 258 256 255 255 255 257 257 258 260 260 259 258 260 259 260 265 268 274 279 281 283 285 286 288 292 297 300 300 303 305 308 313 311 302 309 313 311 309 310 310
262 263 263 262 261 260 260 259 259 258 258 259 260 261 263 265 263 263 263 264 264 266 269 273 277 280 282 283 285 288 294 297 301 302 304 302 310 308 302 306 307 308 307 307 308
264 264 265 265 264 262 262 262 262 262 262 262 263 262 263 264 266 267 268 269 270 272 274 275 275 279 282 284 284 288 291 293 297 299 302 302 318 310 303 308 307 303 299 300 300
264 266 265 265 266 265 264 263 262 263 264 265 266 266 266 266 268 268 269 270 273 275 276 276 277 279 282 284 287 287 286 289 292 293 294 294 302 308 308 311 306 303 300 297 296
269 268 266 266 265 265 266 266 265 264 265 265 267 268 268 268 272 274 274 274 274 274 275 277 278 280 281 283 284 283 285 287 289 291 291 293 297 297 301 302 308 308 300 295 295
270 270 270 265 266 264 265 266 266 265 266 267 267 268 270 268 270 273 274 274 274 275 276 278 278 279 283 283 281 283 283 282 286 288 288 290 293 292 295 299 302 303 298 294 293
271 273 272 269 266 264 264 265 266 267 267 267 268 267 270 270 268 270 273 275 278 279 281 279 277 283 279 278 282 282 281 282 284 283 285 290 290 292 291 295 300 297 298 294 293
268 269 269 272 267 266 265 264 266 267 265 266 266 268 269 269 269 270 273 276 278 280 280 279 279 277 275 277 279 280 281 283 280 282 285 287 287 290 292 293 298 295 295 296 295
265 267 270 268 270 267 266 266 266 267 268 264 266 267 268 269 269 269 272 273 276 277 280 278 281 275 274 275 277 277 280 282 283 284 284 287 286 288 289 295 294 295 298 298 293
268 266 265 268 268 269 269 268 267 268 269 269 264 264 268 270 267 269 269 271 271 275 276 277 279 275 272 275 278 277 279 281 284 285 287 287 292 289 295 295 301 306 302 298 288
269 268 267 266 267 267 267 267 268 268 269 270 271 269 267 268 271 268 267 268 270 272 272 278 276 273 274 275 274 277 278 280 282 284 287 288 292 298 297 302 303 307 309 302 289
269 268 268 269 268 267 267 267 266 266 264 267 270 274 275 271 269 270 267 267 268 269 270 271 272 271 271 270 270 274 277 279 280 283 285 293 292 293 298 302 305 313 312 306 305
265 265 266 267 268 268 267 266 264 261 266 268 273 276 276 276 274 268 267 267 266 267 268 269 269 270 270 271 271 273 276 278 279 283 287 290 289 292 299 299 305 309 309 302 304
262 262 263 264 265 265 262 263 262 265 266 271 274 275 278 278 276 274 269 264 265 268 269 269 268 269 268 267 270 271 271 272 280 283 285 284 286 294 295 296 304 310 310 309 317
270 260 260 262 263 263 260 259 268 267 266 269 269 268 271 274 274 273 271 270 269 268 269 272 268 270 268 268 268 269 270 274 275 278 282 286 289 292 291 298 311 316 311 309 308
266 272 267 258 258 261 259 267 268 267 267 268 269 270 272 272 272 272 273 274 273 269 265 262 262 263 264 266 267 273 276 275 276 277 278 283 288 289 290 297 313 318 310 307 307
256 260 264 264 258 259 263 267 265 262 263 264 266 267 269 268 268 270 271 272 272 272 271 272 271 266 264 263 267 269 269 269 272 273 278 286 281 286 293 304 310 312 305 303 302
247 246 253 253 258 262 266 267 266 263 261 262 261 265 270 266 263 266 267 267 271 271 268 267 267 266 268 271 273 269 267 271 276 282 283 278 276 285 297 296 300 303 303 297 292
246 248 256 254 253 257 258 261 258 255 260 260 260 259 263 262 263 262 263 268 271 270 268 268 264 268 270 271 275 276 276 275 275 274 273 274 280 293 291 293 300 298 300 295 291
255 261 260 261 258 259 261 255 251 253 257 255 255 256 261 261 261 265 268 270 267 264 267 268 266 268 271 274 274 273 273 271 271 272 280 279 288 286 287 296 291 286 289 290 285
255 260 257 264 257 260 264 259 251 256 256 255 252 259 267 264 263 266 269 267 266 266 264 260 264 266 266 264 266 267 266 267 274 278 280 288 287 289 293 292 286 289 290 289 288
259 260 262 262 263 263 262 262 260 263 267 263 265 266 262 260 263 266 261 263 263 259 260 261 263 264 264 264 266 269 267 267 271 281 287 288 287 297 293 294 291 290 291 288 289
256 256 260 264 265 266 264 266 262 264 261 262 267 273 265 264 269 267 263 260 261 259 262 265 268 269 270 271 268 264 272 275 276 277 283 283 290 292 297 293 288 292 285 287 289